Regional Weather Roundup
Issued by NWS Charleston, SC

Current Version | Previous Version | Graphics & Text | Print | Product List | Glossary On
Versions: 1 2 3 4 5 6 7 8 9 10 11 12 13 14 15 16 17 18 19 20 21 22 23 24 25 26 27 28 29 30 31 32 33 34 35 36 37 38 39 40 41 42 43 44 45 46 47 48 49 50
000
ASUS42 KCHS 271210
RWRCHS
REGIONAL WEATHER ROUNDUP
NATIONAL WEATHER SERVICE CHARLESTON SC
700 AM EST TUE JAN 27 2015

NOTE: "FAIR" INDICATES FEW OR NO CLOUDS BELOW 12,000 FEET WITH NO
SIGNIFICANT WEATHER AND/OR OBSTRUCTIONS TO VISIBILITY.

NOT ALL STATIONS ARE QUALITY CONTROLLED BY THE NATIONAL
WEATHER SERVICE. USE DATA WITH CAUTION...ESPECIALLY
DEWPOINT OBSERVATIONS.

SCZ027-030-031-034>040-042>050-271300-
...SOUTHEAST SOUTH CAROLINA...

CITY           SKY/WX    TMP DP  RH WIND       PRES   REMARKS
N CHARLESTON   CLEAR     35  27  72 W8        29.85R WCI  29
6HR MIN TEMP:  35; 6HR MAX TEMP:  42;

WATERFRONT PRK   N/A     36 N/A N/A W8          N/A  WCI  29
MOUNT PLEASANT LGT RAIN N/A N/A N/A W9        29.84R
PINOPOLIS      NOT AVBL
MONCKS CORNER  FAIR      36  28  75 CALM      29.84R
SUMMERVILLE    FAIR      34  30  86 W6        29.86  WCI  29
BEAUFORT MCAS  CLEAR     36  29  75 NW6       29.87R WCI  31
6HR MIN TEMP:  35; 6HR MAX TEMP:  40;

BEAUFORT ARPT  FAIR      37  32  81 NW10      29.86S WCI  30
HILTON HEAD IS CLEAR     37  30  75 W7        29.87  WCI  32
WALTERBORO     SUNNY     34  28  80 W5        29.86S WCI  30
ALLENDALE      FAIR      32  28  86 CALM      29.86R

...SOUTHERN MIDLANDS AND PEE DEE...

CITY           SKY/WX    TMP DP  RH WIND       PRES   REMARKS
GEORGETOWN     NOT AVBL
KINGSTREE      NOT AVBL
ORANGEBURG     CLEAR     34  25  69 W8        29.85R WCI  27
6HR MIN TEMP:  33; 6HR MAX TEMP:  39;

BARNWELL         N/A     32  28  86 CALM      29.86R
AIKEN          FAIR      28  27  93 CALM      29.87R
MANNING        NOT AVBL
COLUMBIA       PTCLDY    29  24  82 W8        29.85R WCI  21
6HR MIN TEMP:  29; 6HR MAX TEMP:  39;

SUMTER         CLEAR     31  24  74 W7        29.82R WCI  24
6HR MIN TEMP:  31; 6HR MAX TEMP:  39;

FLORENCE       CLEAR     34  24  67 NW7       29.81R WCI  28
6HR MIN TEMP:  34; 6HR MAX TEMP:  44;

MYRTLE BEACH   CLEAR     37  27  65 NW12      29.81R WCI  30
N MYRTLE BEACH PTCLDY    38  30  73 VRB5      29.78R WCI  34
6HR MIN TEMP:  38; 6HR MAX TEMP:  46;


$$

GAZ063-065-086>088-099>101-113>116-118-119-134>141-150-271300-
...SOUTHEAST GEORGIA...

CITY           SKY/WX    TMP DP  RH WIND       PRES   REMARKS
SAVANNAH ARPT  CLEAR     37  28  70 W12       29.88R WCI  29
6HR MIN TEMP:  36; 6HR MAX TEMP:  40;

HUNTER AAF     CLEAR     37  29  71 W10       29.86R WCI  30
6HR MIN TEMP:  37; 6HR MAX TEMP:  40;

FORT STEWART   CLEAR     37  29  73 W9        29.89R WCI  30
6HR MIN TEMP:  37; 6HR MAX TEMP:  39;

STATESBORO     CLEAR     37  31  79 W12G17    29.88R WCI  29
SYLVANIA       SUNNY     36  31  83 NW6       29.87S WCI  31
CLAXTON        FAIR      36  32  87 W7        29.89S WCI  30

...CSRA...CENTRAL AND FAR SOUTHEAST GEORGIA...

CITY           SKY/WX    TMP DP  RH WIND       PRES   REMARKS
THOMSON        CLOUDY    37  32  81 W7        29.90R WCI  32
AUGUSTA-BUSH   MOCLDY    30  26  85 CALM      29.87R
6HR MIN TEMP:  29; 6HR MAX TEMP:  38;

AUGUSTA-DANIEL CLOUDY    37  27  67 NW5       29.85R WCI  33
SWAINSBORO     PTSUNNY   36  28  75 W6        29.91R WCI  31
VIDALIA        CLEAR     36  32  87 W3        29.91S
EASTMAN        FAIR      34  34 100 CALM      29.95R
HAZLEHURST     FAIR      35  35 100 W3        29.91S
ALMA           CLEAR     35  32  88 W5        29.92S WCI  31
6HR MIN TEMP:  33; 6HR MAX TEMP:  41;

WAYCROSS       CLEAR     40  37  90 W6        29.93S WCI  36
JESUP          FAIR      37  34  87 CALM      29.92S
BAXLEY         FAIR      37  34  87 CALM      29.91S
BRUNSWICK      CLEAR     39  32  75 W6        29.93S WCI  35
SAINT SIMONS   CLEAR     39  31  72 W9        29.92R WCI  33
6HR MIN TEMP:  39; 6HR MAX TEMP:  42;


$$

SCZ027-028-034-036>038-045-046-048>050-GAZ119-141-271300-
...LAKE AND SUPPLEMENTAL COASTAL OBSERVATIONS...

STATION/POSITION TIME  TEMP    WIND        PRES    WAVE   SWELL
                       AIR SEA DIR/SP/G            HT/PER HT/PER/DIR
                 (UTC) (F)     (DEG/KT/KT) (MB)    (FT/S) (FT/S/D)
UPR LAKE MARION  NOT AVBL
WINYAH BAY       1100   38     290/  6     1008.0R
LAKE MURRAY      1100   34     290/  5/  8 1009.5R
ACE BASIN NERRS  NOT AVBL
FORT PULASKI     1200   40 53  280/ 14/ 16 1011.9R
SAPELO ISLAND    1100   41     290/  9     1012.0S

$$

ANZ835-935-AMZ111-154-330-350-352-354-370-450-454-472-271300-
...C-MAN AND BUOY OBSERVATIONS...

STATION/POSITION TIME  TEMP    WIND        PRES    WAVE   SWELL
                       AIR SEA DIR/SP/G            HT/PER HT/PER/DIR
                 (UTC) (F)     (DEG/KT/KT) (MB)    (FT/S) (FT/S/D)
BUOY 41004       1200   45 67  300/ 21/ 27 1009.2R   8/ 7   2/12
BUOY 41008       1200   45 54  290/ 21/ 25 1011.9R   4/ 4
FOLLY BEACH CMAN 1100   36     280/  7/ 11 1010.7R
CAPERS NEARSHORE 1100   40     300/ 16/ 19   N/A
FRIPP NEARSHORE  1100   41     300/ 16/ 19   N/A


STATION/POSITION TIME  TEMP    WIND        PRES    WAVE   SWELL
                       AIR SEA DIR/SP/G            HT/PER HT/PER/DIR
                 (UTC) (F)     (DEG/KT/KT) (MB)    (FT/S) (FT/S/D)
5E ST. MARYS GA  1200      58                N/A     2/ 3
FRYING PAN BUOY  1200   47 66  310/ 21/ 27 1006.8R   7/ 8
BUOY 41025       1200   42 69  340/ 23/ 29 1003.5R   7/ 9   3/ 20/ 9
CAPE LOOKOUT NC  1100   41     340/ 15/ 18 1004.8R
BUOY 41002       1102   60 72  290/ 21/ 29 1002.8R  13/ 9   8/240/11
BUOY 41010       1200   61 76  300/ 25/ 35 1011.8R  12/10   7/320/10
ST AUGUSTINE FL  1200   41     260/  6/  8 1015.7R


$$



USA.gov is the U.S. government's official web portal to all federal, state and local government web resources and services.